owner,sensor,date,latitude,longitude,sea_surface_height_above_sea_level,qcFlag 
COMPS,ioos:station:USF.COMPS:ARP:1,2011-08-01T01:00:00Z,28.4330,-82.6670,-0.343,1111122 
COMPS,ioos:station:USF.COMPS:ARP:1,2011-08-01T01:06:00Z,28.4330,-82.6670,-0.353,1111122 
COMPS,ioos:station:USF.COMPS:ARP:1,2011-08-01T01:12:00Z,28.4330,-82.6670,-0.363,1111122 
COMPS,ioos:station:USF.COMPS:ARP:1,2011-08-01T01:18:00Z,28.4330,-82.6670,-0.373,1111122 
COMPS,ioos:station:USF.COMPS:ARP:1,2011-08-01T01:24:00Z,28.4330,-82.6670,-0.381,1111122 
COMPS,ioos:station:USF.COMPS:ARP:1,2011-08-01T01:30:00Z,28.4330,-82.6670,-0.39,1111122 
COMPS,ioos:station:USF.COMPS:ARP:1,2011-08-01T01:36:00Z,28.4330,-82.6670,-0.398,1111122 
COMPS,ioos:station:USF.COMPS:ARP:1,2011-08-01T01:42:00Z,28.4330,-82.6670,-0.406,1111122 
COMPS,ioos:station:USF.COMPS:ARP:1,2011-08-01T01:48:00Z,28.4330,-82.6670,-0.414,1111122 
COMPS,ioos:station:USF.COMPS:ARP:1,2011-08-01T01:54:00Z,28.4330,-82.6670,-0.422,1111122 
COMPS,ioos:station:USF.COMPS:ARP:1,2011-08-01T02:00:00Z,28.4330,-82.6670,-0.429,1111122 
COMPS,ioos:station:USF.COMPS:ARP:1,2011-08-01T02:06:00Z,28.4330,-82.6670,-0.436,1111122 
COMPS,ioos:station:USF.COMPS:ARP:1,2011-08-01T02:12:00Z,28.4330,-82.6670,-0.444,1111122 
COMPS,ioos:station:USF.COMPS:ARP:1,2011-08-01T02:18:00Z,28.4330,-82.6670,-0.45,1111122 
COMPS,ioos:station:USF.COMPS:ARP:1,2011-08-01T02:24:00Z,28.4330,-82.6670,-0.456,1111122 
COMPS,ioos:station:USF.COMPS:ARP:1,2011-08-01T02:30:00Z,28.4330,-82.6670,-0.462,1111122 
COMPS,ioos:station:USF.COMPS:ARP:1,2011-08-01T02:36:00Z,28.4330,-82.6670,-0.468,1111122 
COMPS,ioos:station:USF.COMPS:ARP:1,2011-08-01T02:42:00Z,28.4330,-82.6670,-0.473,1111122 
COMPS,ioos:station:USF.COMPS:ARP:1,2011-08-01T02:48:00Z,28.4330,-82.6670,-0.477,1111122 
COMPS,ioos:station:USF.COMPS:ARP:1,2011-08-01T02:54:00Z,28.4330,-82.6670,-0.48,1111122 
COMPS,ioos:station:USF.COMPS:ARP:1,2011-08-01T03:00:00Z,28.4330,-82.6670,-0.482,1111122 
COMPS,ioos:station:USF.COMPS:ARP:1,2011-08-01T03:06:00Z,28.4330,-82.6670,-0.483,1111122 
COMPS,ioos:station:USF.COMPS:ARP:1,2011-08-01T03:12:00Z,28.4330,-82.6670,-0.481,1111122 
COMPS,ioos:station:USF.COMPS:ARP:1,2011-08-01T03:18:00Z,28.4330,-82.6670,-0.478,1111122 
COMPS,ioos:station:USF.COMPS:ARP:1,2011-08-01T03:24:00Z,28.4330,-82.6670,-0.474,1111122 
COMPS,ioos:station:USF.COMPS:ARP:1,2011-08-01T03:30:00Z,28.4330,-82.6670,-0.469,1111122 
COMPS,ioos:station:USF.COMPS:ARP:1,2011-08-01T03:36:00Z,28.4330,-82.6670,-0.462,1111122 
COMPS,ioos:station:USF.COMPS:ARP:1,2011-08-01T03:42:00Z,28.4330,-82.6670,-0.454,1111122 
COMPS,ioos:station:USF.COMPS:ARP:1,2011-08-01T03:48:00Z,28.4330,-82.6670,-0.445,1111122 
COMPS,ioos:station:USF.COMPS:ARP:1,2011-08-01T03:54:00Z,28.4330,-82.6670,-0.435,1111122 
COMPS,ioos:station:USF.COMPS:ARP:1,2011-08-01T04:00:00Z,28.4330,-82.6670,-0.422,1111122 
COMPS,ioos:station:USF.COMPS:ARP:1,2011-08-01T04:06:00Z,28.4330,-82.6670,-0.407,1111122 
COMPS,ioos:station:USF.COMPS:ARP:1,2011-08-01T04:12:00Z,28.4330,-82.6670,-0.391,1111122 
COMPS,ioos:station:USF.COMPS:ARP:1,2011-08-01T04:18:00Z,28.4330,-82.6670,-0.372,1111122 
COMPS,ioos:station:USF.COMPS:ARP:1,2011-08-01T04:24:00Z,28.4330,-82.6670,-0.352,1111122 
COMPS,ioos:station:USF.COMPS:ARP:1,2011-08-01T04:30:00Z,28.4330,-82.6670,-0.329,1111122 
COMPS,ioos:station:USF.COMPS:ARP:1,2011-08-01T04:36:00Z,28.4330,-82.6670,-0.304,1111122 
COMPS,ioos:station:USF.COMPS:ARP:1,2011-08-01T04:42:00Z,28.4330,-82.6670,-0.277,1111122 
COMPS,ioos:station:USF.COMPS:ARP:1,2011-08-01T04:48:00Z,28.4330,-82.6670,-0.247,1111122 
COMPS,ioos:station:USF.COMPS:ARP:1,2011-08-01T04:54:00Z,28.4330,-82.6670,-0.216,1111122 
COMPS,ioos:station:USF.COMPS:ARP:1,2011-08-01T05:00:00Z,28.4330,-82.6670,-0.183,1111122 
COMPS,ioos:station:USF.COMPS:ARP:1,2011-08-01T05:06:00Z,28.4330,-82.6670,-0.148,1111122 
COMPS,ioos:station:USF.COMPS:ARP:1,2011-08-01T05:12:00Z,28.4330,-82.6670,-0.112,1111122 
COMPS,ioos:station:USF.COMPS:ARP:1,2011-08-01T05:18:00Z,28.4330,-82.6670,-0.075,1111122 
COMPS,ioos:station:USF.COMPS:ARP:1,2011-08-01T05:24:00Z,28.4330,-82.6670,-0.038,1111122 
COMPS,ioos:station:USF.COMPS:ARP:1,2011-08-01T05:30:00Z,28.4330,-82.6670,-0.002,1111122 
COMPS,ioos:station:USF.COMPS:ARP:1,2011-08-01T05:36:00Z,28.4330,-82.6670,0.034,1111122 
COMPS,ioos:station:USF.COMPS:ARP:1,2011-08-01T05:42:00Z,28.4330,-82.6670,0.067,1111122 
COMPS,ioos:station:USF.COMPS:ARP:1,2011-08-01T05:48:00Z,28.4330,-82.6670,0.1,1111122 
COMPS,ioos:station:USF.COMPS:ARP:1,2011-08-01T05:54:00Z,28.4330,-82.6670,0.131,1111122 
COMPS,ioos:station:USF.COMPS:ARP:1,2011-08-01T06:00:00Z,28.4330,-82.6670,0.16,1111122 
COMPS,ioos:station:USF.COMPS:ARP:1,2011-08-01T06:06:00Z,28.4330,-82.6670,0.189,1111122 
COMPS,ioos:station:USF.COMPS:ARP:1,2011-08-01T06:12:00Z,28.4330,-82.6670,0.216,1111122 
COMPS,ioos:station:USF.COMPS:ARP:1,2011-08-01T06:18:00Z,28.4330,-82.6670,0.244,1111122 
COMPS,ioos:station:USF.COMPS:ARP:1,2011-08-01T06:24:00Z,28.4330,-82.6670,0.269,1111122 
COMPS,ioos:station:USF.COMPS:ARP:1,2011-08-01T06:30:00Z,28.4330,-82.6670,0.294,1111122 
COMPS,ioos:station:USF.COMPS:ARP:1,2011-08-01T06:36:00Z,28.4330,-82.6670,0.318,1111122 
COMPS,ioos:station:USF.COMPS:ARP:1,2011-08-01T06:42:00Z,28.4330,-82.6670,0.338,1111122 
COMPS,ioos:station:USF.COMPS:ARP:1,2011-08-01T06:48:00Z,28.4330,-82.6670,0.357,1111122 
COMPS,ioos:station:USF.COMPS:ARP:1,2011-08-01T06:54:00Z,28.4330,-82.6670,0.374,1111122 
COMPS,ioos:station:USF.COMPS:ARP:1,2011-08-01T07:00:00Z,28.4330,-82.6670,0.389,1111122 
COMPS,ioos:station:USF.COMPS:ARP:1,2011-08-01T07:06:00Z,28.4330,-82.6670,0.401,1111122 
COMPS,ioos:station:USF.COMPS:ARP:1,2011-08-01T07:12:00Z,28.4330,-82.6670,0.414,1111122 
COMPS,ioos:station:USF.COMPS:ARP:1,2011-08-01T07:18:00Z,28.4330,-82.6670,0.425,1111122 
COMPS,ioos:station:USF.COMPS:ARP:1,2011-08-01T07:24:00Z,28.4330,-82.6670,0.431,1111122 
COMPS,ioos:station:USF.COMPS:ARP:1,2011-08-01T07:30:00Z,28.4330,-82.6670,0.435,1111122 
COMPS,ioos:station:USF.COMPS:ARP:1,2011-08-01T07:36:00Z,28.4330,-82.6670,0.432,1111122 
COMPS,ioos:station:USF.COMPS:ARP:1,2011-08-01T07:42:00Z,28.4330,-82.6670,0.426,1111122 
COMPS,ioos:station:USF.COMPS:ARP:1,2011-08-01T07:48:00Z,28.4330,-82.6670,0.419,1111122 
COMPS,ioos:station:USF.COMPS:ARP:1,2011-08-01T07:54:00Z,28.4330,-82.6670,0.404,1111122 
COMPS,ioos:station:USF.COMPS:ARP:1,2011-08-01T08:00:00Z,28.4330,-82.6670,0.394,1111122 
COMPS,ioos:station:USF.COMPS:ARP:1,2011-08-01T08:06:00Z,28.4330,-82.6670,0.385,1111122 
COMPS,ioos:station:USF.COMPS:ARP:1,2011-08-01T08:12:00Z,28.4330,-82.6670,0.375,1111122 
COMPS,ioos:station:USF.COMPS:ARP:1,2011-08-01T08:18:00Z,28.4330,-82.6670,0.361,1111122 
COMPS,ioos:station:USF.COMPS:ARP:1,2011-08-01T08:24:00Z,28.4330,-82.6670,0.346,1111122 
COMPS,ioos:station:USF.COMPS:ARP:1,2011-08-01T08:30:00Z,28.4330,-82.6670,0.332,1111122 
COMPS,ioos:station:USF.COMPS:ARP:1,2011-08-01T08:36:00Z,28.4330,-82.6670,0.314,1111122 
COMPS,ioos:station:USF.COMPS:ARP:1,2011-08-01T08:42:00Z,28.4330,-82.6670,0.297,1111122 
COMPS,ioos:station:USF.COMPS:ARP:1,2011-08-01T08:48:00Z,28.4330,-82.6670,0.279,1111122 
COMPS,ioos:station:USF.COMPS:ARP:1,2011-08-01T08:54:00Z,28.4330,-82.6670,0.264,1111122 
COMPS,ioos:station:USF.COMPS:ARP:1,2011-08-01T09:00:00Z,28.4330,-82.6670,0.256,1111122 
COMPS,ioos:station:USF.COMPS:ARP:1,2011-08-01T09:06:00Z,28.4330,-82.6670,0.241,1111122 
COMPS,ioos:station:USF.COMPS:ARP:1,2011-08-01T09:12:00Z,28.4330,-82.6670,0.233,1111122 
COMPS,ioos:station:USF.COMPS:ARP:1,2011-08-01T09:18:00Z,28.4330,-82.6670,0.22,1111122 
COMPS,ioos:station:USF.COMPS:ARP:1,2011-08-01T09:24:00Z,28.4330,-82.6670,0.216,1111122 
COMPS,ioos:station:USF.COMPS:ARP:1,2011-08-01T09:30:00Z,28.4330,-82.6670,0.215,1111122 
COMPS,ioos:station:USF.COMPS:ARP:1,2011-08-01T09:36:00Z,28.4330,-82.6670,0.208,1111122 
COMPS,ioos:station:USF.COMPS:ARP:1,2011-08-01T09:42:00Z,28.4330,-82.6670,0.197,1111122 
COMPS,ioos:station:USF.COMPS:ARP:1,2011-08-01T09:48:00Z,28.4330,-82.6670,0.181,1111122 
COMPS,ioos:station:USF.COMPS:ARP:1,2011-08-01T09:54:00Z,28.4330,-82.6670,0.166,1111122 
COMPS,ioos:station:USF.COMPS:ARP:1,2011-08-01T10:00:00Z,28.4330,-82.6670,0.16,1111122 
COMPS,ioos:station:USF.COMPS:ARP:1,2011-08-01T10:06:00Z,28.4330,-82.6670,0.146,1111122 
COMPS,ioos:station:USF.COMPS:ARP:1,2011-08-01T10:12:00Z,28.4330,-82.6670,0.139,1111122 
COMPS,ioos:station:USF.COMPS:ARP:1,2011-08-01T10:18:00Z,28.4330,-82.6670,0.125,1111122 
COMPS,ioos:station:USF.COMPS:ARP:1,2011-08-01T10:24:00Z,28.4330,-82.6670,0.117,1111122 
COMPS,ioos:station:USF.COMPS:ARP:1,2011-08-01T10:30:00Z,28.4330,-82.6670,0.1,1111122 
COMPS,ioos:station:USF.COMPS:ARP:1,2011-08-01T10:36:00Z,28.4330,-82.6670,0.096,1111122 
COMPS,ioos:station:USF.COMPS:ARP:1,2011-08-01T10:42:00Z,28.4330,-82.6670,0.11,1111122 
COMPS,ioos:station:USF.COMPS:ARP:1,2011-08-01T10:48:00Z,28.4330,-82.6670,0.093,1111122 
COMPS,ioos:station:USF.COMPS:ARP:1,2011-08-01T10:54:00Z,28.4330,-82.6670,0.064,1111122 
COMPS,ioos:station:USF.COMPS:ARP:1,2011-08-01T11:00:00Z,28.4330,-82.6670,0.043,1111122 
COMPS,ioos:station:USF.COMPS:ARP:1,2011-08-01T11:06:00Z,28.4330,-82.6670,0.018,1111122 
COMPS,ioos:station:USF.COMPS:ARP:1,2011-08-01T11:12:00Z,28.4330,-82.6670,-0.009,1111122 
COMPS,ioos:station:USF.COMPS:ARP:1,2011-08-01T11:18:00Z,28.4330,-82.6670,-0.029,1111122 
COMPS,ioos:station:USF.COMPS:ARP:1,2011-08-01T11:24:00Z,28.4330,-82.6670,-0.051,1111122 
COMPS,ioos:station:USF.COMPS:ARP:1,2011-08-01T11:30:00Z,28.4330,-82.6670,-0.071,1111122 
COMPS,ioos:station:USF.COMPS:ARP:1,2011-08-01T11:36:00Z,28.4330,-82.6670,-0.09,1111122 
COMPS,ioos:station:USF.COMPS:ARP:1,2011-08-01T11:42:00Z,28.4330,-82.6670,-0.107,1111122 
COMPS,ioos:station:USF.COMPS:ARP:1,2011-08-01T11:48:00Z,28.4330,-82.6670,-0.123,1111122 
COMPS,ioos:station:USF.COMPS:ARP:1,2011-08-01T11:54:00Z,28.4330,-82.6670,-0.138,1111122 
COMPS,ioos:station:USF.COMPS:ARP:1,2011-08-01T12:00:00Z,28.4330,-82.6670,-0.153,1111122 
COMPS,ioos:station:USF.COMPS:ARP:1,2011-08-01T12:06:00Z,28.4330,-82.6670,-0.168,1111122 
COMPS,ioos:station:USF.COMPS:ARP:1,2011-08-01T12:12:00Z,28.4330,-82.6670,-0.181,1111122 
COMPS,ioos:station:USF.COMPS:ARP:1,2011-08-01T12:18:00Z,28.4330,-82.6670,-0.193,1111122 
COMPS,ioos:station:USF.COMPS:ARP:1,2011-08-01T12:24:00Z,28.4330,-82.6670,-0.206,1111122 
COMPS,ioos:station:USF.COMPS:ARP:1,2011-08-01T12:30:00Z,28.4330,-82.6670,-0.217,1111122 
COMPS,ioos:station:USF.COMPS:ARP:1,2011-08-01T12:36:00Z,28.4330,-82.6670,-0.227,1111122 
COMPS,ioos:station:USF.COMPS:ARP:1,2011-08-01T12:42:00Z,28.4330,-82.6670,-0.239,1111122 
COMPS,ioos:station:USF.COMPS:ARP:1,2011-08-01T12:48:00Z,28.4330,-82.6670,-0.249,1111122 
COMPS,ioos:station:USF.COMPS:ARP:1,2011-08-01T12:54:00Z,28.4330,-82.6670,-0.26,1111122 
COMPS,ioos:station:USF.COMPS:ARP:1,2011-08-01T13:00:00Z,28.4330,-82.6670,-0.27,1111122 
COMPS,ioos:station:USF.COMPS:ARP:1,2011-08-01T13:06:00Z,28.4330,-82.6670,-0.281,1111122 
COMPS,ioos:station:USF.COMPS:ARP:1,2011-08-01T13:12:00Z,28.4330,-82.6670,-0.29,1111122 
COMPS,ioos:station:USF.COMPS:ARP:1,2011-08-01T13:18:00Z,28.4330,-82.6670,-0.3,1111122 
COMPS,ioos:station:USF.COMPS:ARP:1,2011-08-01T13:24:00Z,28.4330,-82.6670,-0.31,1111122 
COMPS,ioos:station:USF.COMPS:ARP:1,2011-08-01T13:30:00Z,28.4330,-82.6670,-0.318,1111122 
COMPS,ioos:station:USF.COMPS:ARP:1,2011-08-01T13:36:00Z,28.4330,-82.6670,-0.326,1111122 
COMPS,ioos:station:USF.COMPS:ARP:1,2011-08-01T13:42:00Z,28.4330,-82.6670,-0.334,1111122 
COMPS,ioos:station:USF.COMPS:ARP:1,2011-08-01T13:48:00Z,28.4330,-82.6670,-0.34,1111122 
COMPS,ioos:station:USF.COMPS:ARP:1,2011-08-01T13:54:00Z,28.4330,-82.6670,-0.341,1111122 
COMPS,ioos:station:USF.COMPS:ARP:1,2011-08-01T14:00:00Z,28.4330,-82.6670,-0.336,1111122 
COMPS,ioos:station:USF.COMPS:ARP:1,2011-08-01T14:06:00Z,28.4330,-82.6670,-0.331,1111122 
COMPS,ioos:station:USF.COMPS:ARP:1,2011-08-01T14:12:00Z,28.4330,-82.6670,-0.324,1111122 
COMPS,ioos:station:USF.COMPS:ARP:1,2011-08-01T14:18:00Z,28.4330,-82.6670,-0.312,1111122 
COMPS,ioos:station:USF.COMPS:ARP:1,2011-08-01T14:24:00Z,28.4330,-82.6670,-0.297,1111122 
COMPS,ioos:station:USF.COMPS:ARP:1,2011-08-01T14:30:00Z,28.4330,-82.6670,-0.283,1111122 
COMPS,ioos:station:USF.COMPS:ARP:1,2011-08-01T14:36:00Z,28.4330,-82.6670,-0.27,1111122 
COMPS,ioos:station:USF.COMPS:ARP:1,2011-08-01T14:42:00Z,28.4330,-82.6670,-0.254,1111122 
COMPS,ioos:station:USF.COMPS:ARP:1,2011-08-01T14:48:00Z,28.4330,-82.6670,-0.236,1111122 
COMPS,ioos:station:USF.COMPS:ARP:1,2011-08-01T14:54:00Z,28.4330,-82.6670,-0.218,1111122 
COMPS,ioos:station:USF.COMPS:ARP:1,2011-08-01T15:00:00Z,28.4330,-82.6670,-0.2,1111122 
COMPS,ioos:station:USF.COMPS:ARP:1,2011-08-01T15:06:00Z,28.4330,-82.6670,-0.181,1111122 
COMPS,ioos:station:USF.COMPS:ARP:1,2011-08-01T15:12:00Z,28.4330,-82.6670,-0.161,1111122 
COMPS,ioos:station:USF.COMPS:ARP:1,2011-08-01T15:18:00Z,28.4330,-82.6670,-0.14,1111122 
COMPS,ioos:station:USF.COMPS:ARP:1,2011-08-01T15:24:00Z,28.4330,-82.6670,-0.119,1111122 
COMPS,ioos:station:USF.COMPS:ARP:1,2011-08-01T15:30:00Z,28.4330,-82.6670,-0.096,1111122 
COMPS,ioos:station:USF.COMPS:ARP:1,2011-08-01T15:36:00Z,28.4330,-82.6670,-0.073,1111122 
COMPS,ioos:station:USF.COMPS:ARP:1,2011-08-01T15:42:00Z,28.4330,-82.6670,-0.048,1111122 
COMPS,ioos:station:USF.COMPS:ARP:1,2011-08-01T15:48:00Z,28.4330,-82.6670,-0.021,1111122 
COMPS,ioos:station:USF.COMPS:ARP:1,2011-08-01T15:54:00Z,28.4330,-82.6670,0.005,1111122 
COMPS,ioos:station:USF.COMPS:ARP:1,2011-08-01T16:00:00Z,28.4330,-82.6670,0.035,1111122 
COMPS,ioos:station:USF.COMPS:ARP:1,2011-08-01T16:06:00Z,28.4330,-82.6670,0.063,1111122 
COMPS,ioos:station:USF.COMPS:ARP:1,2011-08-01T16:12:00Z,28.4330,-82.6670,0.092,1111122 
COMPS,ioos:station:USF.COMPS:ARP:1,2011-08-01T16:18:00Z,28.4330,-82.6670,0.123,1111122 
COMPS,ioos:station:USF.COMPS:ARP:1,2011-08-01T16:24:00Z,28.4330,-82.6670,0.152,1111122 
COMPS,ioos:station:USF.COMPS:ARP:1,2011-08-01T16:30:00Z,28.4330,-82.6670,0.182,1111122 
COMPS,ioos:station:USF.COMPS:ARP:1,2011-08-01T16:36:00Z,28.4330,-82.6670,0.211,1111122 
COMPS,ioos:station:USF.COMPS:ARP:1,2011-08-01T16:42:00Z,28.4330,-82.6670,0.241,1111122 
COMPS,ioos:station:USF.COMPS:ARP:1,2011-08-01T16:48:00Z,28.4330,-82.6670,0.271,1111122 
COMPS,ioos:station:USF.COMPS:ARP:1,2011-08-01T16:54:00Z,28.4330,-82.6670,0.298,1111122 
COMPS,ioos:station:USF.COMPS:ARP:1,2011-08-01T17:00:00Z,28.4330,-82.6670,0.327,1111122 
COMPS,ioos:station:USF.COMPS:ARP:1,2011-08-01T17:06:00Z,28.4330,-82.6670,0.356,1111122 
COMPS,ioos:station:USF.COMPS:ARP:1,2011-08-01T17:12:00Z,28.4330,-82.6670,0.384,1111122 
COMPS,ioos:station:USF.COMPS:ARP:1,2011-08-01T17:18:00Z,28.4330,-82.6670,0.411,1111122 
COMPS,ioos:station:USF.COMPS:ARP:1,2011-08-01T17:24:00Z,28.4330,-82.6670,0.437,1111122 
COMPS,ioos:station:USF.COMPS:ARP:1,2011-08-01T17:30:00Z,28.4330,-82.6670,0.462,1111122 
COMPS,ioos:station:USF.COMPS:ARP:1,2011-08-01T17:36:00Z,28.4330,-82.6670,0.488,1111122 
COMPS,ioos:station:USF.COMPS:ARP:1,2011-08-01T17:42:00Z,28.4330,-82.6670,0.516,1111122 
COMPS,ioos:station:USF.COMPS:ARP:1,2011-08-01T17:48:00Z,28.4330,-82.6670,0.54,1111122 
COMPS,ioos:station:USF.COMPS:ARP:1,2011-08-01T17:54:00Z,28.4330,-82.6670,0.562,1111122 
COMPS,ioos:station:USF.COMPS:ARP:1,2011-08-01T18:00:00Z,28.4330,-82.6670,0.587,1111122 
COMPS,ioos:station:USF.COMPS:ARP:1,2011-08-01T18:06:00Z,28.4330,-82.6670,0.61,1111122 
COMPS,ioos:station:USF.COMPS:ARP:1,2011-08-01T18:12:00Z,28.4330,-82.6670,0.628,1111122 
COMPS,ioos:station:USF.COMPS:ARP:1,2011-08-01T18:18:00Z,28.4330,-82.6670,0.649,1111122 
COMPS,ioos:station:USF.COMPS:ARP:1,2011-08-01T18:24:00Z,28.4330,-82.6670,0.664,1111122 
COMPS,ioos:station:USF.COMPS:ARP:1,2011-08-01T18:30:00Z,28.4330,-82.6670,0.683,1111122 
COMPS,ioos:station:USF.COMPS:ARP:1,2011-08-01T18:36:00Z,28.4330,-82.6670,0.695,1111122 
COMPS,ioos:station:USF.COMPS:ARP:1,2011-08-01T18:42:00Z,28.4330,-82.6670,0.701,1111122 
COMPS,ioos:station:USF.COMPS:ARP:1,2011-08-01T18:48:00Z,28.4330,-82.6670,0.709,1111122 
COMPS,ioos:station:USF.COMPS:ARP:1,2011-08-01T18:54:00Z,28.4330,-82.6670,0.711,1111122 
COMPS,ioos:station:USF.COMPS:ARP:1,2011-08-01T19:00:00Z,28.4330,-82.6670,0.712,1111122 
COMPS,ioos:station:USF.COMPS:ARP:1,2011-08-01T19:06:00Z,28.4330,-82.6670,0.708,1111122 
COMPS,ioos:station:USF.COMPS:ARP:1,2011-08-01T19:12:00Z,28.4330,-82.6670,0.7,1111122 
COMPS,ioos:station:USF.COMPS:ARP:1,2011-08-01T19:18:00Z,28.4330,-82.6670,0.697,1111122 
COMPS,ioos:station:USF.COMPS:ARP:1,2011-08-01T19:24:00Z,28.4330,-82.6670,0.69,1111122 
COMPS,ioos:station:USF.COMPS:ARP:1,2011-08-01T19:30:00Z,28.4330,-82.6670,0.688,1111122 
COMPS,ioos:station:USF.COMPS:ARP:1,2011-08-01T19:36:00Z,28.4330,-82.6670,0.682,1111122 
COMPS,ioos:station:USF.COMPS:ARP:1,2011-08-01T19:42:00Z,28.4330,-82.6670,0.676,1111122 
COMPS,ioos:station:USF.COMPS:ARP:1,2011-08-01T19:48:00Z,28.4330,-82.6670,0.675,1111122 
COMPS,ioos:station:USF.COMPS:ARP:1,2011-08-01T19:54:00Z,28.4330,-82.6670,0.668,1111122 
COMPS,ioos:station:USF.COMPS:ARP:1,2011-08-01T20:00:00Z,28.4330,-82.6670,0.656,1111122 
COMPS,ioos:station:USF.COMPS:ARP:1,2011-08-01T20:06:00Z,28.4330,-82.6670,0.644,1111122 
COMPS,ioos:station:USF.COMPS:ARP:1,2011-08-01T20:12:00Z,28.4330,-82.6670,0.627,1111122 
COMPS,ioos:station:USF.COMPS:ARP:1,2011-08-01T20:18:00Z,28.4330,-82.6670,0.612,1111122 
COMPS,ioos:station:USF.COMPS:ARP:1,2011-08-01T20:24:00Z,28.4330,-82.6670,0.592,1111122 
COMPS,ioos:station:USF.COMPS:ARP:1,2011-08-01T20:30:00Z,28.4330,-82.6670,0.576,1111122 
COMPS,ioos:station:USF.COMPS:ARP:1,2011-08-01T20:36:00Z,28.4330,-82.6670,0.559,1111122 
COMPS,ioos:station:USF.COMPS:ARP:1,2011-08-01T20:42:00Z,28.4330,-82.6670,0.542,1111122 
COMPS,ioos:station:USF.COMPS:ARP:1,2011-08-01T20:48:00Z,28.4330,-82.6670,0.528,1111122 
COMPS,ioos:station:USF.COMPS:ARP:1,2011-08-01T20:54:00Z,28.4330,-82.6670,0.509,1111122 
COMPS,ioos:station:USF.COMPS:ARP:1,2011-08-01T21:00:00Z,28.4330,-82.6670,0.49,1111122 
COMPS,ioos:station:USF.COMPS:ARP:1,2011-08-01T21:06:00Z,28.4330,-82.6670,0.471,1111122 
COMPS,ioos:station:USF.COMPS:ARP:1,2011-08-01T21:12:00Z,28.4330,-82.6670,0.453,1111122 
COMPS,ioos:station:USF.COMPS:ARP:1,2011-08-01T21:18:00Z,28.4330,-82.6670,0.435,1111122 
COMPS,ioos:station:USF.COMPS:ARP:1,2011-08-01T21:24:00Z,28.4330,-82.6670,0.417,1111122 
COMPS,ioos:station:USF.COMPS:ARP:1,2011-08-01T21:30:00Z,28.4330,-82.6670,0.399,1111122 
COMPS,ioos:station:USF.COMPS:ARP:1,2011-08-01T21:36:00Z,28.4330,-82.6670,0.384,1111122 
COMPS,ioos:station:USF.COMPS:ARP:1,2011-08-01T21:42:00Z,28.4330,-82.6670,0.365,1111122 
COMPS,ioos:station:USF.COMPS:ARP:1,2011-08-01T21:48:00Z,28.4330,-82.6670,0.346,1111122 
COMPS,ioos:station:USF.COMPS:ARP:1,2011-08-01T21:54:00Z,28.4330,-82.6670,0.327,1111122 
COMPS,ioos:station:USF.COMPS:ARP:1,2011-08-01T22:00:00Z,28.4330,-82.6670,0.309,1111122 
COMPS,ioos:station:USF.COMPS:ARP:1,2011-08-01T22:06:00Z,28.4330,-82.6670,0.289,1111122 
COMPS,ioos:station:USF.COMPS:ARP:1,2011-08-01T22:12:00Z,28.4330,-82.6670,0.268,1111122 
COMPS,ioos:station:USF.COMPS:ARP:1,2011-08-01T22:18:00Z,28.4330,-82.6670,0.249,1111122 
COMPS,ioos:station:USF.COMPS:ARP:1,2011-08-01T22:24:00Z,28.4330,-82.6670,0.23,1111122 
COMPS,ioos:station:USF.COMPS:ARP:1,2011-08-01T22:30:00Z,28.4330,-82.6670,0.21,1111122 
COMPS,ioos:station:USF.COMPS:ARP:1,2011-08-01T22:36:00Z,28.4330,-82.6670,0.19,1111122 
COMPS,ioos:station:USF.COMPS:ARP:1,2011-08-01T22:42:00Z,28.4330,-82.6670,0.169,1111122 
COMPS,ioos:station:USF.COMPS:ARP:1,2011-08-01T22:48:00Z,28.4330,-82.6670,0.149,1111122 
COMPS,ioos:station:USF.COMPS:ARP:1,2011-08-01T22:54:00Z,28.4330,-82.6670,0.131,1111122 
COMPS,ioos:station:USF.COMPS:ARP:1,2011-08-01T23:00:00Z,28.4330,-82.6670,0.112,1111122 
COMPS,ioos:station:USF.COMPS:ARP:1,2011-08-01T23:06:00Z,28.4330,-82.6670,0.091,1111122 
COMPS,ioos:station:USF.COMPS:ARP:1,2011-08-01T23:12:00Z,28.4330,-82.6670,0.071,1111122 
COMPS,ioos:station:USF.COMPS:ARP:1,2011-08-01T23:18:00Z,28.4330,-82.6670,0.05,1111122 
COMPS,ioos:station:USF.COMPS:ARP:1,2011-08-01T23:24:00Z,28.4330,-82.6670,0.026,1111122 
COMPS,ioos:station:USF.COMPS:ARP:1,2011-08-01T23:30:00Z,28.4330,-82.6670,0.003,1111122 
COMPS,ioos:station:USF.COMPS:ARP:1,2011-08-01T23:36:00Z,28.4330,-82.6670,-0.02,1111122 
COMPS,ioos:station:USF.COMPS:ARP:1,2011-08-01T23:42:00Z,28.4330,-82.6670,-0.04,1111122 
COMPS,ioos:station:USF.COMPS:ARP:1,2011-08-01T23:48:00Z,28.4330,-82.6670,-0.063,1111122 
COMPS,ioos:station:USF.COMPS:ARP:1,2011-08-01T23:54:00Z,28.4330,-82.6670,-0.083,1111122 
COMPS,ioos:station:USF.COMPS:ARP:1,2011-08-02T00:00:00Z,28.4330,-82.6670,-0.102,1111122 
COMPS,ioos:station:USF.COMPS:ARP:1,2011-08-02T00:06:00Z,28.4330,-82.6670,-0.12,1111122 
COMPS,ioos:station:USF.COMPS:ARP:1,2011-08-02T00:12:00Z,28.4330,-82.6670,-0.137,1111122 
COMPS,ioos:station:USF.COMPS:ARP:1,2011-08-02T00:18:00Z,28.4330,-82.6670,-0.155,1111122 
COMPS,ioos:station:USF.COMPS:ARP:1,2011-08-02T00:24:00Z,28.4330,-82.6670,-0.171,1111122 
COMPS,ioos:station:USF.COMPS:ARP:1,2011-08-02T00:30:00Z,28.4330,-82.6670,-0.187,1111122 
COMPS,ioos:station:USF.COMPS:ARP:1,2011-08-02T00:36:00Z,28.4330,-82.6670,-0.203,1111122 
COMPS,ioos:station:USF.COMPS:ARP:1,2011-08-02T00:42:00Z,28.4330,-82.6670,-0.218,1111122 
COMPS,ioos:station:USF.COMPS:ARP:1,2011-08-02T00:48:00Z,28.4330,-82.6670,-0.232,1111122 
COMPS,ioos:station:USF.COMPS:ARP:1,2011-08-02T00:54:00Z,28.4330,-82.6670,-0.247,1111122 
COMPS,ioos:station:USF.COMPS:ARP:1,2011-08-02T01:00:00Z,28.4330,-82.6670,-0.26,1111122 
COMPS,ioos:station:USF.COMPS:ARP:1,2011-08-02T01:06:00Z,28.4330,-82.6670,-0.274,1111122 
COMPS,ioos:station:USF.COMPS:ARP:1,2011-08-02T01:12:00Z,28.4330,-82.6670,-0.287,1111122 
COMPS,ioos:station:USF.COMPS:ARP:1,2011-08-02T01:18:00Z,28.4330,-82.6670,-0.299,1111122 
COMPS,ioos:station:USF.COMPS:ARP:1,2011-08-02T01:24:00Z,28.4330,-82.6670,-0.31,1111122 
COMPS,ioos:station:USF.COMPS:ARP:1,2011-08-02T01:30:00Z,28.4330,-82.6670,-0.322,1111122 
COMPS,ioos:station:USF.COMPS:ARP:1,2011-08-02T01:36:00Z,28.4330,-82.6670,-0.333,1111122 
COMPS,ioos:station:USF.COMPS:ARP:1,2011-08-02T01:42:00Z,28.4330,-82.6670,-0.344,1111122 
COMPS,ioos:station:USF.COMPS:ARP:1,2011-08-02T01:48:00Z,28.4330,-82.6670,-0.355,1111122 
COMPS,ioos:station:USF.COMPS:ARP:1,2011-08-02T01:54:00Z,28.4330,-82.6670,-0.365,1111122 
COMPS,ioos:station:USF.COMPS:ARP:1,2011-08-02T02:00:00Z,28.4330,-82.6670,-0.375,1111122 
COMPS,ioos:station:USF.COMPS:ARP:1,2011-08-02T02:06:00Z,28.4330,-82.6670,-0.384,1111122 
COMPS,ioos:station:USF.COMPS:ARP:1,2011-08-02T02:12:00Z,28.4330,-82.6670,-0.393,1111122 
COMPS,ioos:station:USF.COMPS:ARP:1,2011-08-02T02:18:00Z,28.4330,-82.6670,-0.401,1111122 
COMPS,ioos:station:USF.COMPS:ARP:1,2011-08-02T02:24:00Z,28.4330,-82.6670,-0.41,1111122 
COMPS,ioos:station:USF.COMPS:ARP:1,2011-08-02T02:30:00Z,28.4330,-82.6670,-0.417,1111122 
COMPS,ioos:station:USF.COMPS:ARP:1,2011-08-02T02:36:00Z,28.4330,-82.6670,-0.424,1111122 
COMPS,ioos:station:USF.COMPS:ARP:1,2011-08-02T02:42:00Z,28.4330,-82.6670,-0.432,1111122 
COMPS,ioos:station:USF.COMPS:ARP:1,2011-08-02T02:48:00Z,28.4330,-82.6670,-0.439,1111122 
COMPS,ioos:station:USF.COMPS:ARP:1,2011-08-02T02:54:00Z,28.4330,-82.6670,-0.445,1111122 
COMPS,ioos:station:USF.COMPS:ARP:1,2011-08-02T03:00:00Z,28.4330,-82.6670,-0.452,1111122 
COMPS,ioos:station:USF.COMPS:ARP:1,2011-08-02T03:06:00Z,28.4330,-82.6670,-0.458,1111122 
COMPS,ioos:station:USF.COMPS:ARP:1,2011-08-02T03:12:00Z,28.4330,-82.6670,-0.463,1111122 
COMPS,ioos:station:USF.COMPS:ARP:1,2011-08-02T03:18:00Z,28.4330,-82.6670,-0.469,1111122 
COMPS,ioos:station:USF.COMPS:ARP:1,2011-08-02T03:24:00Z,28.4330,-82.6670,-0.474,1111122 
COMPS,ioos:station:USF.COMPS:ARP:1,2011-08-02T03:30:00Z,28.4330,-82.6670,-0.478,1111122 
COMPS,ioos:station:USF.COMPS:ARP:1,2011-08-02T03:36:00Z,28.4330,-82.6670,-0.48,1111122 
COMPS,ioos:station:USF.COMPS:ARP:1,2011-08-02T03:42:00Z,28.4330,-82.6670,-0.48,1111122 
COMPS,ioos:station:USF.COMPS:ARP:1,2011-08-02T03:48:00Z,28.4330,-82.6670,-0.48,1111122 
COMPS,ioos:station:USF.COMPS:ARP:1,2011-08-02T03:54:00Z,28.4330,-82.6670,-0.478,1111122 